9W2SHB-13 Weather Reports


time (UTC)temp
C
wind
direction
speed
KPH
gust
KPH
rain 1hr
cm
rain 24hr
cm
rain mn
cm
humidity
%
barometer
mb
20260506200006 31 0 0.0 0.0 0.00 0.00 0.00 64 1026.2
20260506194506 31 0 0.0 0.0 0.00 0.00 0.00 64 1026.3
20260506193008 31 0 0.0 0.0 0.00 0.00 0.00 64 1026.5
20260506191506 31 0 0.0 0.0 0.00 0.00 0.00 64 1026.7
20260506190006 31 0 0.0 0.0 0.00 0.00 0.00 65 1026.9
20260506184507 31 0 0.0 0.0 0.00 0.00 0.00 65 1027.0
20260506183006 31 0 0.0 0.0 0.00 0.00 0.00 65 1027.2
20260506181507 31 0 0.0 0.0 0.00 0.00 0.00 65 1027.3
20260506180006 31 0 0.0 0.0 0.00 0.00 0.00 65 1027.4
20260506174507 31 0 0.0 0.0 0.00 0.00 0.00 66 1027.6
20260506173007 31 0 0.0 0.0 0.00 0.00 0.00 66 1027.7
20260506171506 31 0 0.0 0.0 0.00 0.00 0.00 66 1028.0
20260506170007 31 0 0.0 0.0 0.00 0.00 0.00 65 1028.2
20260506164507 31 0 0.0 0.0 0.00 0.00 0.00 66 1028.4
20260506163007 31 0 0.0 0.0 0.00 0.00 0.00 66 1028.5
20260506161507 31 0 0.0 0.0 0.00 0.00 0.00 66 1028.7
20260506160007 31 0 0.0 0.0 0.00 0.00 0.00 65 1028.5
20260506154506 31 0 0.0 0.0 0.00 0.00 0.00 65 1028.3
20260506153006 31 0 0.0 0.0 0.00 0.00 0.00 65 1028.0
20260506151507 31 0 0.0 0.0 0.00 0.00 0.00 65 1028.0
20260506150006 31 0 0.0 0.0 0.00 0.00 0.00 64 1028.3
20260506144507 31 0 0.0 0.0 0.00 0.00 0.00 64 1028.2
20260506143006 31 0 0.0 0.0 0.00 0.00 0.00 64 1028.3
20260506141507 31 0 0.0 0.0 0.00 0.00 0.00 63 1028.3
20260506140008 31 0 0.0 0.0 0.00 0.00 0.00 63 1028.5
20260506134506 31 0 0.0 0.0 0.00 0.00 0.00 63 1027.7
20260506133007 31 0 0.0 0.0 0.00 0.00 0.00 63 1027.7
20260506131507 31 0 0.0 0.0 0.00 0.00 0.00 63 1027.5
20260506130007 31 0 0.0 0.0 0.00 0.00 0.00 62 1026.9
20260506124507 31 0 0.0 0.0 0.00 0.00 0.00 62 1027.0
20260506123007 31 0 0.0 0.0 0.00 0.00 0.00 62 1026.7
20260506121506 31 0 0.0 0.0 0.00 0.00 0.00 60 1026.3
20260506120007 31 0 0.0 0.0 0.00 0.00 0.00 60 1026.0
20260506114507 31 0 0.0 0.0 0.00 0.00 0.00 61 1025.6
20260506113006 31 0 0.0 0.0 0.00 0.00 0.00 60 1025.4
20260506111507 32 0 0.0 0.0 0.00 0.00 0.00 59 1025.5
20260506110007 32 0 0.0 0.0 0.00 0.00 0.00 59 1025.5
20260506104507 32 0 0.0 0.0 0.00 0.00 0.00 59 1025.4
20260506103007 32 0 0.0 0.0 0.00 0.00 0.00 59 1025.4
20260506101507 32 0 0.0 0.0 0.00 0.00 0.00 60 1025.1
20260506100007 32 0 0.0 0.0 0.00 0.00 0.00 60 1025.2
20260506094507 32 0 0.0 0.0 0.00 0.00 0.00 60 1024.7
20260506093006 32 0 0.0 0.0 0.00 0.00 0.00 60 1024.7
20260506091507 32 0 0.0 0.0 0.00 0.00 0.00 60 1024.4
20260506090007 32 0 0.0 0.0 0.00 0.00 0.00 59 1024.3
20260506084507 32 0 0.0 0.0 0.00 0.00 0.00 61 1024.1
20260506083006 33 0 0.0 0.0 0.00 0.00 0.00 59 1024.1
20260506081507 32 0 0.0 0.0 0.00 0.00 0.00 59 1024.2
20260506073006 32 0 0.0 0.0 0.00 0.00 0.00 58 1024.6
20260506071507 33 0 0.0 0.0 0.00 0.00 0.00 56 1024.9
20260506061507 32 0 0.0 0.0 0.00 0.00 0.00 60 1026.1
20260506044507 31 0 0.0 0.0 0.00 0.00 0.00 62 1028.1
20260506043007 31 0 0.0 0.0 0.00 0.00 0.00 63 1028.2
20260506041507 31 0 0.0 0.0 0.00 0.00 0.00 64 1028.5
20260506040006 31 0 0.0 0.0 0.00 0.00 0.00 64 1028.7
20260506034507 31 0 0.0 0.0 0.00 0.00 0.00 65 1028.8
20260506033007 30 0 0.0 0.0 0.00 0.00 0.00 65 1028.9
20260506031507 30 0 0.0 0.0 0.00 0.00 0.00 64 1029.1
20260506030007 30 0 0.0 0.0 0.00 0.00 0.00 67 1029.2
20260506024507 30 0 0.0 0.0 0.00 0.00 0.00 68 1029.3
20260506023007 30 0 0.0 0.0 0.00 0.00 0.00 69 1029.3
20260506021506 30 0 0.0 0.0 0.00 0.00 0.00 70 1029.3
20260506020007 30 0 0.0 0.0 0.00 0.00 0.00 70 1029.2
20260506014507 30 0 0.0 0.0 0.00 0.00 0.00 69 1029.4
20260506013007 30 0 0.0 0.0 0.00 0.00 0.00 69 1029.2
20260506011507 30 0 0.0 0.0 0.00 0.00 0.00 67 1029.0
20260506010006 30 0 0.0 0.0 0.00 0.00 0.00 68 1028.9
20260506004507 30 0 0.0 0.0 0.00 0.00 0.00 68 1028.6
20260506003007 30 0 0.0 0.0 0.00 0.00 0.00 68 1028.2
20260506001506 30 0 0.0 0.0 0.00 0.00 0.00 68 1028.1
20260506000006 30 0 0.0 0.0 0.00 0.00 0.00 67 1028.0
20260505234507 30 0 0.0 0.0 0.00 0.00 0.00 67 1027.9
20260505233006 30 0 0.0 0.0 0.00 0.00 0.00 68 1027.7
20260505231506 30 0 0.0 0.0 0.00 0.00 0.00 67 1027.5
20260505230007 30 0 0.0 0.0 0.00 0.00 0.00 66 1027.6
20260505224507 30 0 0.0 0.0 0.00 0.00 0.00 66 1027.7
20260505223007 30 0 0.0 0.0 0.00 0.00 0.00 65 1027.8
20260505221506 29 0 0.0 0.0 0.00 0.00 0.00 67 1027.8
20260505220007 29 0 0.0 0.0 0.00 0.00 0.00 67 1027.7
20260505214506 30 0 0.0 0.0 0.00 0.00 0.00 67 1027.6
20260505213007 30 0 0.0 0.0 0.00 0.00 0.00 67 1027.6
20260505211507 30 0 0.0 0.0 0.00 0.00 0.00 66 1027.6
20260505210006 30 0 0.0 0.0 0.00 0.00 0.00 66 1027.3
20260505204507 30 0 0.0 0.0 0.00 0.00 0.00 66 1027.2
20260505203007 30 0 0.0 0.0 0.00 0.00 0.00 67 1027.1
20260505201506 30 0 0.0 0.0 0.00 0.00 0.00 66 1026.9